DW2149 Weather Reports


time (UTC)temp
C
wind
direction
speed
KPH
gust
KPH
rain 1hr
cm
rain 24hr
cm
rain mn
cm
humidity
%
barometer
mb
20260904011207 22 238 0.0 4.8 0.00 0.00 0.00 43 1010.4
20260904010811 22 237 0.0 1.6 0.00 0.00 0.00 43 1010.4
20260904010601 22 237 0.0 3.2 0.00 0.00 0.00 42 1010.2
20260904010356 22 153 0.0 0.0 0.00 0.00 0.00 43 1010.2
20260904010143 22 153 0.0 3.2 0.00 0.00 0.00 42 1010.2
20260904005937 22 280 0.0 1.6 0.00 0.00 0.00 42 1010.2
20260904005544 22 280 0.0 4.8 0.00 0.00 0.00 41 1010.2
20260904005339 22 277 0.0 4.8 0.00 0.00 0.00 42 1010.3
20260904004949 23 273 0.0 4.8 0.00 0.00 0.00 41 1010.3
20260904004746 23 279 0.0 4.8 0.00 0.00 0.00 41 1010.2
20260904004541 23 215 0.0 3.2 0.00 0.00 0.00 41 1010.2
20260904004333 23 215 0.0 3.2 0.00 0.00 0.00 42 1010.2
20260904004126 23 215 0.0 8.0 0.00 0.00 0.00 41 1010.2
20260904003914 23 213 1.6 8.0 0.00 0.00 0.00 41 1010.2
20260904003707 23 198 1.6 8.0 0.00 0.00 0.00 41 1010.2
20260904003455 23 147 1.6 8.0 0.00 0.00 0.00 41 1010.2
20260904003252 23 216 1.6 8.0 0.00 0.00 0.00 41 1010.2
20260904003050 23 242 1.6 8.0 0.00 0.00 0.00 40 1010.3
20260904002844 23 216 1.6 8.0 0.00 0.00 0.00 41 1010.2
20260904002633 23 232 1.6 8.0 0.00 0.00 0.00 41 1010.2
20260904002422 23 340 1.6 9.7 0.00 0.00 0.00 40 1010.2
20260904002213 23 344 1.6 9.7 0.00 0.00 0.00 41 1010.2
20260904002007 23 268 0.0 9.7 0.00 0.00 0.00 41 1010.3
20260904001801 23 233 1.6 9.7 0.00 0.00 0.00 40 1010.3
20260904001559 23 233 0.0 9.7 0.00 0.00 0.00 40 1010.2
20260904001358 23 155 1.6 9.7 0.00 0.00 0.00 41 1010.2
20260904001002 23 306 1.6 9.7 0.00 0.00 0.00 41 1010.3
20260904000757 23 219 0.0 9.7 0.00 0.00 0.00 39 1010.3
20260904000545 23 281 0.0 9.7 0.00 0.00 0.00 39 1010.4
20260904000333 23 306 0.0 6.4 0.00 0.00 0.00 39 1010.3
20260904000122 24 214 0.0 0.0 0.00 0.00 0.00 40 1010.4
20260903235918 24 214 0.0 11.3 0.00 0.00 0.00 39 1010.4
20260903235711 24 214 0.0 11.3 0.00 0.00 0.00 39 1010.5
20260903235507 24 215 0.0 11.3 0.00 0.00 0.00 39 1010.5
20260903235300 24 223 0.0 11.3 0.00 0.00 0.00 38 1010.4
20260903235048 24 278 1.6 9.7 0.00 0.00 0.00 40 1010.5
20260903234846 24 278 1.6 9.7 0.00 0.00 0.00 39 1010.5
20260903234640 24 228 1.6 9.7 0.00 0.00 0.00 39 1010.5
20260903234433 23 217 0.0 9.7 0.00 0.00 0.00 39 1010.4
20260903234226 24 148 0.0 9.7 0.00 0.00 0.00 39 1010.4
20260903233837 24 211 0.0 4.8 0.00 0.00 0.00 40 1010.4
20260903233625 24 213 0.0 0.0 0.00 0.00 0.00 39 1010.4
20260903233423 24 213 0.0 11.3 0.00 0.00 0.00 40 1010.4
20260903233212 24 213 0.0 11.3 0.00 0.00 0.00 38 1010.5
20260903233010 25 329 1.6 11.3 0.00 0.00 0.00 39 1010.4
20260903232804 25 251 1.6 9.7 0.00 0.00 0.00 38 1010.5
20260903232555 25 264 1.6 9.7 0.00 0.00 0.00 38 1010.6
20260903232349 25 294 1.6 9.7 0.00 0.00 0.00 39 1010.6
20260903232146 25 225 1.6 9.7 0.00 0.00 0.00 38 1010.6
20260903231937 25 267 0.0 9.7 0.00 0.00 0.00 37 1010.5
20260903231732 25 216 0.0 9.7 0.00 0.00 0.00 38 1010.5
20260903231523 25 227 0.0 8.0 0.00 0.00 0.00 38 1010.5
20260903231313 25 227 0.0 8.0 0.00 0.00 0.00 39 1010.5
20260903231107 25 157 0.0 8.0 0.00 0.00 0.00 39 1010.6
20260903230902 25 283 0.0 8.0 0.00 0.00 0.00 38 1010.7
20260903230659 24 231 0.0 8.0 0.00 0.00 0.00 39 1010.7
20260903230450 24 284 0.0 8.0 0.00 0.00 0.00 39 1010.7
20260903230055 24 284 0.0 8.0 0.00 0.00 0.00 39 1010.7
20260903225843 24 286 1.6 8.0 0.00 0.00 0.00 38 1010.8
20260903225637 24 197 1.6 9.7 0.00 0.00 0.00 38 1010.8
20260903225430 24 210 1.6 9.7 0.00 0.00 0.00 40 1010.8
20260903225222 24 210 3.2 9.7 0.00 0.00 0.00 38 1010.9
20260903225015 25 210 1.6 9.7 0.00 0.00 0.00 38 1011.0
20260903224813 25 211 1.6 9.7 0.00 0.00 0.00 38 1010.9
20260903224604 25 161 1.6 9.7 0.00 0.00 0.00 37 1011.0
20260903224352 25 355 0.0 9.7 0.00 0.00 0.00 39 1011.0
20260903224143 25 323 0.0 9.7 0.00 0.00 0.00 39 1011.0
20260903223936 24 304 0.0 9.7 0.00 0.00 0.00 38 1011.0
20260903223726 24 284 0.0 8.0 0.00 0.00 0.00 39 1011.0
20260903223331 24 95 1.6 9.7 0.00 0.00 0.00 38 1011.1
20260903223119 25 207 1.6 9.7 0.00 0.00 0.00 38 1011.1
20260903222917 25 196 1.6 9.7 0.00 0.00 0.00 38 1011.2
20260903222709 25 219 1.6 9.7 0.00 0.00 0.00 40 1011.2
20260903222318 25 252 1.6 9.7 0.00 0.00 0.00 39 1011.2
20260903222117 25 219 1.6 9.7 0.00 0.00 0.00 38 1011.2
20260903221904 25 242 1.6 9.7 0.00 0.00 0.00 40 1011.3
20260903221656 25 244 1.6 9.7 0.00 0.00 0.00 38 1011.3
20260903221454 25 16 1.6 8.0 0.00 0.00 0.00 40 1011.4
20260903221251 24 288 1.6 9.7 0.00 0.00 0.00 40 1011.4
20260903221039 24 329 1.6 9.7 0.00 0.00 0.00 39 1011.4
20260903220647 24 261 1.6 9.7 0.00 0.00 0.00 40 1011.4
20260903220440 24 261 1.6 11.3 0.00 0.00 0.00 39 1011.6
20260903215859 24 228 1.6 11.3 0.00 0.00 0.00 39 1011.6
20260903215651 24 277 0.0 11.3 0.00 0.00 0.00 39 1011.6
20260903215439 24 211 0.0 11.3 0.00 0.00 0.00 38 1011.5
20260903215233 25 211 1.6 11.3 0.00 0.00 0.00 38 1011.7
20260903215020 25 266 1.6 11.3 0.00 0.00 0.00 39 1011.7
20260903214633 25 249 1.6 11.3 0.00 0.00 0.00 39 1011.7
20260903214422 24 213 0.0 8.0 0.00 0.00 0.00 40 1011.7
20260903214211 24 247 0.0 6.4 0.00 0.00 0.00 40 1011.6
20260903214003 24 15 0.0 6.4 0.00 0.00 0.00 40 1011.7
20260903213607 24 227 1.6 4.8 0.00 0.00 0.00 39 1011.7
20260903213401 24 227 0.0 4.8 0.00 0.00 0.00 40 1011.7
20260903213010 24 207 1.6 8.0 0.00 0.00 0.00 39 1011.7
20260903212759 24 207 1.6 4.8 0.00 0.00 0.00 40 1011.7
20260903212557 24 198 1.6 3.2 0.00 0.00 0.00 39 1011.8
20260903212354 24 198 1.6 8.0 0.00 0.00 0.00 38 1011.8
20260903212149 24 162 1.6 8.0 0.00 0.00 0.00 39 1011.7
20260903211937 24 213 0.0 8.0 0.00 0.00 0.00 39 1011.7
20260903211734 24 205 1.6 8.0 0.00 0.00 0.00 40 1011.7
20260903211532 24 172 1.6 8.0 0.00 0.00 0.00 40 1011.8
20260903211323 24 231 1.6 6.4 0.00 0.00 0.00 39 1011.7
20260903211119 24 242 1.6 6.4 0.00 0.00 0.00 40 1011.7
20260903210911 23 304 1.6 6.4 0.00 0.00 0.00 41 1011.7
20260903210700 23 345 1.6 6.4 0.00 0.00 0.00 42 1011.8
20260903210449 23 232 0.0 0.0 0.00 0.00 0.00 44 1011.8
20260903210244 23 231 1.6 8.0 0.00 0.00 0.00 44 1011.8
20260903210033 22 49 1.6 8.0 0.00 0.00 0.00 44 1011.8
20260903205824 22 84 1.6 8.0 0.00 0.00 0.00 42 1011.9
20260903205613 22 178 1.6 8.0 0.00 0.00 0.00 42 1012.0
20260903205402 23 157 1.6 8.0 0.00 0.00 0.00 41 1012.0
20260903205014 22 213 1.6 8.0 0.00 0.00 0.00 41 1011.9
20260903204806 22 202 1.6 9.7 0.00 0.00 0.00 43 1012.0
20260903204602 23 204 1.6 9.7 0.00 0.00 0.00 45 1012.0
20260903204358 23 202 1.6 9.7 0.00 0.00 0.00 43 1012.0
20260903204147 23 180 1.6 9.7 0.00 0.00 0.00 42 1012.0
20260903203939 22 302 0.0 9.7 0.00 0.00 0.00 45 1012.0
20260903203732 22 254 1.6 9.7 0.00 0.00 0.00 42 1012.0
20260903203524 22 254 1.6 9.7 0.00 0.00 0.00 43 1012.1
20260903203315 22 253 1.6 9.7 0.00 0.00 0.00 43 1012.0
20260903202926 22 204 1.6 9.7 0.00 0.00 0.00 44 1012.1
20260903202716 22 235 0.0 0.0 0.00 0.00 0.00 42 1012.0
20260903202507 22 218 1.6 8.0 0.00 0.00 0.00 44 1012.1
20260903202259 22 215 1.6 8.0 0.00 0.00 0.00 42 1012.2
20260903202048 22 258 1.6 8.0 0.00 0.00 0.00 43 1012.2
20260903201837 22 258 1.6 11.3 0.00 0.00 0.00 43 1012.1
20260903201631 22 267 1.6 11.3 0.00 0.00 0.00 42 1012.2
20260903201430 22 302 1.6 11.3 0.00 0.00 0.00 43 1012.2
20260903201220 22 257 1.6 11.3 0.00 0.00 0.00 44 1012.2
20260903201007 22 221 1.6 11.3 0.00 0.00 0.00 45 1012.2
20260903200801 22 207 3.2 11.3 0.00 0.00 0.00 44 1012.2
20260903200221 22 215 3.2 11.3 0.00 0.00 0.00 47 1012.3
20260903195831 22 186 1.6 8.0 0.00 0.00 0.00 44 1012.3
20260903195627 22 132 1.6 8.0 0.00 0.00 0.00 49 1012.3
20260903195421 22 175 1.6 8.0 0.00 0.00 0.00 43 1012.4
20260903195212 22 180 1.6 12.9 0.00 0.00 0.00 45 1012.4
20260903194959 22 223 1.6 12.9 0.00 0.00 0.00 43 1012.4
20260903194750 22 198 1.6 12.9 0.00 0.00 0.00 44 1012.3
20260903194546 22 252 1.6 12.9 0.00 0.00 0.00 42 1012.5
20260903194341 22 206 1.6 12.9 0.00 0.00 0.00 42 1012.4
20260903194134 22 205 3.2 12.9 0.00 0.00 0.00 41 1012.5
20260903193928 22 203 1.6 12.9 0.00 0.00 0.00 41 1012.5
20260903193538 23 200 1.6 12.9 0.00 0.00 0.00 42 1012.3
20260903193325 23 192 0.0 11.3 0.00 0.00 0.00 41 1012.3
20260903193112 23 225 0.0 11.3 0.00 0.00 0.00 41 1012.3
20260903192908 23 257 0.0 11.3 0.00 0.00 0.00 41 1012.4
20260903192705 22 257 1.6 11.3 0.00 0.00 0.00 41 1012.4
20260903192500 22 257 1.6 11.3 0.00 0.00 0.00 41 1012.4
20260903192253 22 257 1.6 11.3 0.00 0.00 0.00 42 1012.5
20260903192041 22 193 1.6 11.3 0.00 0.00 0.00 42 1012.6
20260903191837 22 229 1.6 11.3 0.00 0.00 0.00 42 1012.6
20260903191625 22 251 0.0 9.7 0.00 0.00 0.00 42 1012.5
20260903191420 22 251 0.0 9.7 0.00 0.00 0.00 42 1012.6
20260903191209 22 251 0.0 9.7 0.00 0.00 0.00 42 1012.7
20260903190957 22 248 0.0 9.7 0.00 0.00 0.00 43 1012.6
20260903190748 22 267 0.0 9.7 0.00 0.00 0.00 42 1012.7
20260903190546 22 227 0.0 8.0 0.00 0.00 0.00 43 1012.7
20260903190152 22 227 1.6 9.7 0.00 0.00 0.00 41 1012.7
20260903185948 22 226 1.6 9.7 0.00 0.00 0.00 42 1012.8
20260903185740 22 257 1.6 9.7 0.00 0.00 0.00 42 1012.7
20260903185536 22 249 1.6 9.7 0.00 0.00 0.00 41 1012.8
20260903185326 22 227 1.6 9.7 0.00 0.00 0.00 43 1012.8
20260903184937 22 226 1.6 9.7 0.00 0.00 0.00 43 1012.9
20260903184735 22 223 1.6 9.7 0.00 0.00 0.00 45 1013.0
20260903184525 21 217 1.6 9.7 0.00 0.00 0.00 45 1012.9
20260903184322 21 290 1.6 9.7 0.00 0.00 0.00 44 1013.0
20260903184111 21 280 0.0 8.0 0.00 0.00 0.00 45 1013.1
20260903183906 21 279 0.0 8.0 0.00 0.00 0.00 45 1013.1
20260903183655 21 46 0.0 4.8 0.00 0.00 0.00 47 1013.1
20260903183258 20 211 0.0 1.6 0.00 0.00 0.00 49 1013.2
20260903183045 20 211 1.6 0.0 0.00 0.00 0.00 49 1013.2
20260903182833 20 211 1.6 9.7 0.00 0.00 0.00 50 1013.2
20260903182628 20 211 1.6 9.7 0.00 0.00 0.00 49 1013.2
20260903182421 20 210 1.6 9.7 0.00 0.00 0.00 49 1013.3
20260903182219 19 208 0.0 9.7 0.00 0.00 0.00 49 1013.3
20260903182010 19 214 0.0 6.4 0.00 0.00 0.00 49 1013.3
20260903181757 19 185 0.0 4.8 0.00 0.00 0.00 50 1013.2
20260903181547 19 213 0.0 1.6 0.00 0.00 0.00 50 1013.2
20260903181342 19 213 0.0 8.0 0.00 0.00 0.00 49 1013.4
20260903181133 19 213 0.0 8.0 0.00 0.00 0.00 50 1013.3
20260903180929 19 213 0.0 8.0 0.00 0.00 0.00 50 1013.3
20260903180722 18 213 1.6 8.0 0.00 0.00 0.00 51 1013.4
20260903180329 18 214 0.0 8.0 0.00 0.00 0.00 51 1013.3
20260903180126 18 215 0.0 8.0 0.00 0.00 0.00 52 1013.3
20260903175924 18 213 0.0 3.2 0.00 0.00 0.00 52 1013.3
20260903175721 18 213 0.0 3.2 0.00 0.00 0.00 53 1013.3
20260903175517 18 213 0.0 3.2 0.00 0.00 0.00 53 1013.3
20260903175124 18 213 0.0 0.0 0.00 0.00 0.00 52 1013.4
20260903174915 18 213 0.0 4.8 0.00 0.00 0.00 52 1013.4
20260903174521 18 217 0.0 6.4 0.00 0.00 0.00 53 1013.4
20260903174134 17 211 0.0 6.4 0.00 0.00 0.00 54 1013.4
20260903173926 17 211 0.0 6.4 0.00 0.00 0.00 54 1013.5
20260903173718 17 163 0.0 6.4 0.00 0.00 0.00 55 1013.4
20260903173508 17 158 0.0 6.4 0.00 0.00 0.00 55 1013.5
20260903173301 17 157 0.0 6.4 0.00 0.00 0.00 55 1013.5
20260903173054 17 157 0.0 6.4 0.00 0.00 0.00 55 1013.5
20260903172842 17 157 0.0 6.4 0.00 0.00 0.00 55 1013.5
20260903172633 17 182 0.0 3.2 0.00 0.00 0.00 55 1013.5
20260903172426 16 182 0.0 1.6 0.00 0.00 0.00 55 1013.5
20260903172216 16 182 0.0 0.0 0.00 0.00 0.00 56 1013.6
20260903171826 16 182 0.0 4.8 0.00 0.00 0.00 56 1013.6
20260903171623 16 182 0.0 4.8 0.00 0.00 0.00 57 1013.7
20260903171413 16 182 0.0 4.8 0.00 0.00 0.00 59 1013.7
20260903171202 16 182 0.0 3.2 0.00 0.00 0.00 59 1013.7
20260903170951 16 178 0.0 3.2 0.00 0.00 0.00 60 1013.7
20260903170738 15 178 0.0 0.0 0.00 0.00 0.00 61 1013.7
20260903170535 15 178 0.0 6.4 0.00 0.00 0.00 60 1013.8
20260903170331 15 167 0.0 6.4 0.00 0.00 0.00 61 1013.7
20260903170127 15 150 0.0 6.4 0.00 0.00 0.00 62 1013.7
20260903165915 15 215 0.0 4.8 0.00 0.00 0.00 62 1013.8
20260903165708 15 244 0.0 4.8 0.00 0.00 0.00 62 1013.8
20260903165503 14 244 0.0 4.8 0.00 0.00 0.00 63 1013.8
20260903165252 14 204 0.0 0.0 0.00 0.00 0.00 64 1013.9
20260903165045 14 204 0.0 0.0 0.00 0.00 0.00 64 1013.9
20260903164840 13 204 0.0 0.0 0.00 0.00 0.00 65 1013.9
20260903164627 13 204 0.0 1.6 0.00 0.00 0.00 67 1013.9
20260903164421 13 204 0.0 1.6 0.00 0.00 0.00 68 1013.9
20260903164212 13 204 0.0 1.6 0.00 0.00 0.00 70 1013.9
20260903163820 12 205 0.0 0.0 0.00 0.00 0.00 70 1013.9
20260903163240 12 205 0.0 6.4 0.00 0.00 0.00 74 1013.9
20260903163032 12 234 0.0 1.6 0.00 0.00 0.00 75 1013.9
20260903162831 12 248 0.0 0.0 0.00 0.00 0.00 76 1013.9
20260903162620 11 248 0.0 1.6 0.00 0.00 0.00 77 1013.9
20260903162408 11 248 0.0 0.0 0.00 0.00 0.00 78 1013.9
20260903162156 11 248 0.0 0.0 0.00 0.00 0.00 78 1014.0
20260903161953 11 248 0.0 0.0 0.00 0.00 0.00 79 1014.0
20260903161741 11 248 0.0 1.6 0.00 0.00 0.00 79 1013.9
20260903161537 11 248 0.0 1.6 0.00 0.00 0.00 80 1013.9
20260903161332 11 248 0.0 4.8 0.00 0.00 0.00 80 1013.9
20260903160941 10 251 0.0 0.0 0.00 0.00 0.00 80 1013.9
20260903160728 10 251 0.0 0.0 0.00 0.00 0.00 80 1013.9
20260903160338 10 251 0.0 0.0 0.00 0.00 0.00 80 1013.9
20260903160128 10 251 0.0 0.0 0.00 0.00 0.00 80 1013.9
20260903155924 10 251 0.0 0.0 0.00 0.00 0.00 80 1014.0
20260903155721 10 251 0.0 0.0 0.00 0.00 0.00 79 1014.0
20260903155512 10 251 0.0 0.0 0.00 0.00 0.00 79 1014.0
20260903155307 10 251 0.0 0.0 0.00 0.00 0.00 79 1014.0
20260903155055 9 251 0.0 0.0 0.00 0.00 0.00 78 1014.0
20260903154848 9 251 0.0 0.0 0.00 0.00 0.00 78 1014.0
20260903154638 9 251 0.0 0.0 0.00 0.00 0.00 78 1014.0
20260903154246 9 251 0.0 0.0 0.00 0.00 0.00 77 1014.0
20260903154037 9 251 0.0 0.0 0.00 0.00 0.00 77 1013.9
20260903153826 9 251 0.0 0.0 0.00 0.00 0.00 77 1014.0
20260903153624 9 251 0.0 0.0 0.00 0.00 0.00 77 1014.0
20260903153414 9 251 0.0 0.0 0.00 0.00 0.00 77 1014.0
20260903153203 8 251 0.0 0.0 0.00 0.00 0.00 76 1014.1
20260903152952 8 251 0.0 0.0 0.00 0.00 0.00 76 1014.1
20260903152746 8 251 0.0 0.0 0.00 0.00 0.00 76 1014.1
20260903152205 8 251 0.0 0.0 0.00 0.00 0.00 76 1014.2
20260903152004 8 251 0.0 0.0 0.00 0.00 0.00 76 1014.2
20260903151429 8 251 0.0 0.0 0.00 0.00 0.00 76 1014.1
20260903151223 8 251 0.0 0.0 0.00 0.00 0.00 75 1014.2
20260903151014 8 251 0.0 0.0 0.00 0.00 0.00 75 1014.1
20260903150804 8 251 0.0 0.0 0.00 0.00 0.00 75 1014.1
20260903150559 8 251 0.0 0.0 0.00 0.00 0.00 75 1014.3
20260903150351 8 251 0.0 0.0 0.00 0.00 0.00 75 1014.3
20260903150138 8 251 0.0 0.0 0.00 0.00 0.00 75 1014.2
20260903145932 8 251 0.0 0.0 0.00 0.00 0.00 75 1014.2
20260903145723 8 251 0.0 0.0 0.00 0.00 0.00 75 1014.2
20260903145514 8 251 0.0 0.0 0.00 0.00 0.00 75 1014.3
20260903145307 8 251 0.0 0.0 0.00 0.00 0.00 75 1014.3
20260903145054 8 251 0.0 0.0 0.00 0.00 0.00 75 1014.3
20260903144704 8 251 0.0 0.0 0.00 0.00 0.00 74 1014.3
20260903144457 8 251 0.0 0.0 0.00 0.00 0.00 74 1014.2
20260903144107 8 251 0.0 0.0 0.00 0.00 0.00 74 1014.3
20260903143858 8 251 0.0 0.0 0.00 0.00 0.00 74 1014.3
20260903143654 8 251 0.0 0.0 0.00 0.00 0.00 74 1014.2
20260903143445 8 251 0.0 0.0 0.00 0.00 0.00 74 1014.2
20260903143240 8 251 0.0 0.0 0.00 0.00 0.00 74 1014.2
20260903143038 8 251 0.0 0.0 0.00 0.00 0.00 74 1014.1
20260903142826 8 251 0.0 0.0 0.00 0.00 0.00 74 1014.1
20260903142618 8 251 0.0 0.0 0.00 0.00 0.00 74 1014.1
20260903142221 8 251 0.0 0.0 0.00 0.00 0.00 74 1014.1
20260903142015 8 251 0.0 0.0 0.00 0.00 0.00 74 1014.0
20260903141618 8 251 0.0 0.0 0.00 0.00 0.00 73 1014.0
20260903141411 8 251 0.0 0.0 0.00 0.00 0.00 73 1014.1
20260903141200 8 251 0.0 0.0 0.00 0.00 0.00 73 1014.0
20260903140953 8 251 0.0 0.0 0.00 0.00 0.00 73 1014.0
20260903140745 8 251 0.0 0.0 0.00 0.00 0.00 73 1014.0
20260903140532 8 251 0.0 0.0 0.00 0.00 0.00 73 1013.9
20260903140320 8 251 0.0 0.0 0.00 0.00 0.00 73 1013.9
20260903140118 8 251 0.0 0.0 0.00 0.00 0.00 73 1013.9
20260903135915 8 251 0.0 0.0 0.00 0.00 0.00 73 1014.0
20260903135708 8 251 0.0 0.0 0.00 0.00 0.00 73 1014.0
20260903135500 8 251 0.0 0.0 0.00 0.00 0.00 73 1014.0
20260903135254 8 251 0.0 0.0 0.00 0.00 0.00 73 1013.9
20260903135047 8 251 0.0 0.0 0.00 0.00 0.00 73 1013.9
20260903134655 8 251 0.0 0.0 0.00 0.00 0.00 73 1013.8
20260903134447 8 251 0.0 0.0 0.00 0.00 0.00 73 1013.8
20260903134245 8 251 0.0 0.0 0.00 0.00 0.00 73 1013.8
20260903133857 8 251 0.0 0.0 0.00 0.00 0.00 73 1013.8
20260903133653 8 251 0.0 0.0 0.00 0.00 0.00 73 1013.8
20260903133448 8 251 0.0 0.0 0.00 0.00 0.00 73 1013.8
20260903133240 8 251 0.0 0.0 0.00 0.00 0.00 73 1013.8
20260903133039 8 251 0.0 0.0 0.00 0.00 0.00 72 1013.8
20260903132835 8 251 0.0 0.0 0.00 0.00 0.00 72 1013.7
20260903132257 8 251 0.0 0.0 0.00 0.00 0.00 72 1013.8
20260903131626 8 251 0.0 0.0 0.00 0.00 0.00 72 1013.7
20260903131417 8 251 0.0 0.0 0.00 0.00 0.00 72 1013.8
20260903131214 8 251 0.0 0.0 0.00 0.00 0.00 72 1013.8
20260903130826 8 251 0.0 0.0 0.00 0.00 0.00 72 1013.8
20260903130618 8 251 0.0 0.0 0.00 0.00 0.00 72 1013.8
20260903130415 8 251 0.0 0.0 0.00 0.00 0.00 72 1013.8
20260903130026 8 251 0.0 0.0 0.00 0.00 0.00 72 1013.8
20260903125823 8 251 0.0 0.0 0.00 0.00 0.00 72 1013.8
20260903125619 8 251 0.0 0.0 0.00 0.00 0.00 72 1013.8
20260903125415 8 251 0.0 0.0 0.00 0.00 0.00 72 1013.8
20260903125210 8 251 0.0 0.0 0.00 0.00 0.00 72 1013.8
20260903125000 8 251 0.0 0.0 0.00 0.00 0.00 72 1013.8
20260903124756 8 251 0.0 0.0 0.00 0.00 0.00 71 1013.8
20260903124543 8 251 0.0 0.0 0.00 0.00 0.00 71 1013.8
20260903124337 8 251 0.0 0.0 0.00 0.00 0.00 71 1013.9
20260903124131 8 251 0.0 0.0 0.00 0.00 0.00 71 1013.9
20260903123921 8 251 0.0 0.0 0.00 0.00 0.00 71 1013.9
20260903123719 8 251 0.0 0.0 0.00 0.00 0.00 71 1013.9
20260903123513 8 251 0.0 0.0 0.00 0.00 0.00 71 1014.0
20260903123303 8 251 0.0 0.0 0.00 0.00 0.00 71 1014.0
20260903123100 8 251 0.0 0.0 0.00 0.00 0.00 71 1014.0
20260903122857 8 251 0.0 0.0 0.00 0.00 0.00 71 1014.0
20260903122645 8 251 0.0 0.0 0.00 0.00 0.00 71 1014.0
20260903122434 8 251 0.0 0.0 0.00 0.00 0.00 71 1014.0
20260903122225 8 251 0.0 0.0 0.00 0.00 0.00 71 1014.0
20260903122021 8 251 0.0 0.0 0.00 0.00 0.00 71 1014.0
20260903121624 8 251 0.0 0.0 0.00 0.00 0.00 71 1014.0
20260903121423 8 251 0.0 0.0 0.00 0.00 0.00 71 1013.9
20260903121215 8 251 0.0 0.0 0.00 0.00 0.00 70 1013.9
20260903120819 8 251 0.0 0.0 0.00 0.00 0.00 70 1014.0
20260903120424 8 251 0.0 0.0 0.00 0.00 0.00 70 1014.0
20260903120214 9 251 0.0 0.0 0.00 0.00 0.00 70 1014.0
20260903120005 9 251 0.0 0.0 0.00 0.00 0.00 70 1014.0
20260903115756 9 251 0.0 0.0 0.00 0.00 0.00 70 1014.0
20260903115405 9 251 0.0 0.0 0.00 0.00 0.00 70 1014.0
20260903115153 9 251 0.0 0.0 0.00 0.00 0.00 70 1014.0
20260903114944 9 251 0.0 0.0 0.00 0.00 0.00 70 1014.0
20260903114737 9 251 0.0 0.0 0.00 0.00 0.00 70 1014.0
20260903114530 9 251 0.0 0.0 0.00 0.00 0.00 70 1014.0
20260903114328 9 251 0.0 0.0 0.00 0.00 0.00 70 1014.0
20260903114122 9 251 0.0 0.0 0.00 0.00 0.00 70 1014.0
20260903113915 9 251 0.0 0.0 0.00 0.00 0.00 70 1014.0
20260903113709 9 251 0.0 0.0 0.00 0.00 0.00 70 1014.0
20260903113456 9 251 0.0 0.0 0.00 0.00 0.00 70 1014.0
20260903113247 9 251 0.0 0.0 0.00 0.00 0.00 70 1014.0
20260903113042 9 251 0.0 0.0 0.00 0.00 0.00 70 1014.1
20260903112837 9 251 0.0 0.0 0.00 0.00 0.00 70 1014.1
20260903112627 9 251 0.0 0.0 0.00 0.00 0.00 70 1014.0
20260903112414 9 251 0.0 0.0 0.00 0.00 0.00 70 1014.1
20260903112210 9 251 0.0 0.0 0.00 0.00 0.00 70 1014.1
20260903112000 9 251 0.0 0.0 0.00 0.00 0.00 70 1014.1
20260903111754 9 251 0.0 0.0 0.00 0.00 0.00 70 1014.1
20260903111541 9 251 0.0 0.0 0.00 0.00 0.00 69 1014.2
20260903111336 9 251 0.0 0.0 0.00 0.00 0.00 69 1014.2
20260903111131 9 251 0.0 0.0 0.00 0.00 0.00 69 1014.2
20260903110921 9 251 0.0 0.0 0.00 0.00 0.00 69 1014.2
20260903110719 9 251 0.0 0.0 0.00 0.00 0.00 69 1014.2
20260903110512 9 251 0.0 0.0 0.00 0.00 0.00 69 1014.2
20260903110125 9 251 0.0 0.0 0.00 0.00 0.00 69 1014.2
20260903105727 9 251 0.0 0.0 0.00 0.00 0.00 69 1014.3
20260903105525 9 251 0.0 0.0 0.00 0.00 0.00 69 1014.2
20260903105319 9 251 0.0 0.0 0.00 0.00 0.00 69 1014.2
20260903105113 9 251 0.0 0.0 0.00 0.00 0.00 69 1014.3
20260903104904 9 251 0.0 0.0 0.00 0.00 0.00 69 1014.3
20260903104654 9 251 0.0 0.0 0.00 0.00 0.00 69 1014.2
20260903104444 9 251 0.0 0.0 0.00 0.00 0.00 69 1014.3
20260903104057 9 251 0.0 0.0 0.00 0.00 0.00 69 1014.3
20260903103855 9 251 0.0 0.0 0.00 0.00 0.00 69 1014.3
20260903103648 9 251 0.0 0.0 0.00 0.00 0.00 69 1014.3
20260903103117 9 251 0.0 0.0 0.00 0.00 0.00 69 1014.3
20260903102915 9 251 0.0 0.0 0.00 0.00 0.00 69 1014.3
20260903102712 9 251 0.0 0.0 0.00 0.00 0.00 69 1014.3
20260903102510 9 251 0.0 0.0 0.00 0.00 0.00 68 1014.4
20260903102305 10 251 0.0 0.0 0.00 0.00 0.00 68 1014.3
20260903102054 10 251 0.0 0.0 0.00 0.00 0.00 68 1014.4
20260903101842 10 251 0.0 0.0 0.00 0.00 0.00 68 1014.4
20260903101634 10 251 0.0 0.0 0.00 0.00 0.00 68 1014.4
20260903101421 10 251 0.0 0.0 0.00 0.00 0.00 68 1014.4
20260903101215 10 251 0.0 0.0 0.00 0.00 0.00 68 1014.4
20260903101008 10 251 0.0 0.0 0.00 0.00 0.00 68 1014.4
20260903100758 10 251 0.0 0.0 0.00 0.00 0.00 68 1014.4
20260903100405 10 251 0.0 0.0 0.00 0.00 0.00 68 1014.4
20260903100156 10 251 0.0 0.0 0.00 0.00 0.00 68 1014.3
20260903095804 10 251 0.0 0.0 0.00 0.00 0.00 68 1014.3
20260903095555 10 251 0.0 0.0 0.00 0.00 0.00 68 1014.3
20260903095344 10 251 0.0 0.0 0.00 0.00 0.00 68 1014.4
20260903095138 10 251 0.0 0.0 0.00 0.00 0.00 68 1014.4
20260903094930 10 251 0.0 0.0 0.00 0.00 0.00 68 1014.4
20260903094717 10 251 0.0 0.0 0.00 0.00 0.00 68 1014.4
20260903094511 10 251 0.0 0.0 0.00 0.00 0.00 68 1014.4
20260903094302 10 251 0.0 0.0 0.00 0.00 0.00 68 1014.4
20260903094100 10 251 0.0 0.0 0.00 0.00 0.00 68 1014.4
20260903093855 10 251 0.0 0.0 0.00 0.00 0.00 67 1014.4
20260903093643 10 251 0.0 0.0 0.00 0.00 0.00 67 1014.4
20260903093432 10 251 0.0 0.0 0.00 0.00 0.00 67 1014.4
20260903093221 10 251 0.0 0.0 0.00 0.00 0.00 67 1014.4
20260903092827 10 251 0.0 0.0 0.00 0.00 0.00 67 1014.4
20260903092615 10 251 0.0 0.0 0.00 0.00 0.00 67 1014.5
20260903092402 10 251 0.0 0.0 0.00 0.00 0.00 67 1014.5
20260903092158 10 251 0.0 0.0 0.00 0.00 0.00 67 1014.5
20260903091952 10 251 0.0 0.0 0.00 0.00 0.00 67 1014.5
20260903091744 10 251 0.0 0.0 0.00 0.00 0.00 67 1014.6
20260903091532 10 251 0.0 0.0 0.00 0.00 0.00 67 1014.5
20260903091322 10 251 0.0 0.0 0.00 0.00 0.00 67 1014.5
20260903090929 10 251 0.0 0.0 0.00 0.00 0.00 67 1014.5
20260903090721 10 251 0.0 0.0 0.00 0.00 0.00 67 1014.5
20260903090510 10 251 0.0 0.0 0.00 0.00 0.00 67 1014.5
20260903090045 10 251 0.0 0.0 0.00 0.00 0.00 67 1014.5
20260903085837 10 251 0.0 0.0 0.00 0.00 0.00 67 1014.5
20260903085624 10 251 0.0 0.0 0.00 0.00 0.00 67 1014.5
20260903085414 10 251 0.0 0.0 0.00 0.00 0.00 66 1014.6
20260903085208 10 251 0.0 0.0 0.00 0.00 0.00 66 1014.6
20260903084959 10 251 0.0 0.0 0.00 0.00 0.00 66 1014.7
20260903084752 10 251 0.0 0.0 0.00 0.00 0.00 66 1014.7
20260903084549 10 251 0.0 0.0 0.00 0.00 0.00 66 1014.7
20260903084337 10 251 0.0 0.0 0.00 0.00 0.00 66 1014.7
20260903084127 10 251 0.0 0.0 0.00 0.00 0.00 66 1014.7
20260903083921 10 251 0.0 0.0 0.00 0.00 0.00 66 1014.7
20260903083712 10 251 0.0 0.0 0.00 0.00 0.00 66 1014.7
20260903083504 10 251 0.0 0.0 0.00 0.00 0.00 66 1014.7
20260903083257 10 251 0.0 0.0 0.00 0.00 0.00 66 1014.7
20260903083051 10 251 0.0 0.0 0.00 0.00 0.00 66 1014.7
20260903082654 10 251 0.0 0.0 0.00 0.00 0.00 66 1014.8
20260903082448 10 251 0.0 0.0 0.00 0.00 0.00 66 1014.7
20260903082054 10 251 0.0 0.0 0.00 0.00 0.00 66 1014.8
20260903081847 10 251 0.0 0.0 0.00 0.00 0.00 66 1014.8
20260903081640 10 251 0.0 0.0 0.00 0.00 0.00 65 1014.7
20260903081437 10 251 0.0 0.0 0.00 0.00 0.00 65 1014.7
20260903081228 10 251 0.0 0.0 0.00 0.00 0.00 65 1014.7
20260903081019 10 251 0.0 0.0 0.00 0.00 0.00 65 1014.7
20260903080629 10 251 0.0 0.0 0.00 0.00 0.00 65 1014.7
20260903080422 10 251 0.0 0.0 0.00 0.00 0.00 65 1014.7
20260903080217 10 251 0.0 0.0 0.00 0.00 0.00 65 1014.8
20260903080008 10 251 0.0 0.0 0.00 0.00 0.00 65 1014.8
20260903075800 10 251 0.0 0.0 0.00 0.00 0.00 65 1014.8
20260903075407 10 251 0.0 0.0 0.00 0.00 0.00 65 1014.9
20260903075201 10 251 0.0 0.0 0.00 0.00 0.00 65 1014.8
20260903074955 10 251 0.0 0.0 0.00 0.00 0.00 65 1014.8
20260903074606 11 251 0.0 0.0 0.00 0.00 0.00 64 1014.8
20260903074355 11 251 0.0 0.0 0.00 0.00 0.00 64 1014.8
20260903074007 11 251 0.0 0.0 0.00 0.00 0.00 64 1014.8
20260903073618 11 251 0.0 0.0 0.00 0.00 0.00 64 1014.8
20260903073412 11 251 0.0 0.0 0.00 0.00 0.00 64 1014.8
20260903073202 11 251 0.0 0.0 0.00 0.00 0.00 64 1014.7
20260903072958 11 251 0.0 0.0 0.00 0.00 0.00 64 1014.8
20260903072746 11 251 0.0 0.0 0.00 0.00 0.00 64 1014.7
20260903072539 11 251 0.0 0.0 0.00 0.00 0.00 64 1014.7
20260903072333 11 251 0.0 0.0 0.00 0.00 0.00 64 1014.7
20260903072122 11 251 0.0 0.0 0.00 0.00 0.00 64 1014.7
20260903071354 11 251 0.0 0.0 0.00 0.00 0.00 63 1014.8
20260903071142 11 251 0.0 0.0 0.00 0.00 0.00 63 1014.7
20260903070938 11 251 0.0 0.0 0.00 0.00 0.00 63 1014.8
20260903070726 11 251 0.0 0.0 0.00 0.00 0.00 63 1014.7
20260903070522 11 251 0.0 0.0 0.00 0.00 0.00 63 1014.8
20260903070124 11 251 0.0 0.0 0.00 0.00 0.00 63 1014.7
20260903065915 11 251 0.0 0.0 0.00 0.00 0.00 63 1014.7
20260903065710 11 251 0.0 0.0 0.00 0.00 0.00 62 1014.8
20260903065506 11 251 0.0 0.0 0.00 0.00 0.00 62 1014.8
20260903065253 11 251 0.0 0.0 0.00 0.00 0.00 62 1014.7
20260903065051 11 251 0.0 0.0 0.00 0.00 0.00 62 1014.8
20260903064838 11 251 0.0 0.0 0.00 0.00 0.00 62 1014.7
20260903064629 11 251 0.0 0.0 0.00 0.00 0.00 62 1014.7
20260903064423 11 251 0.0 0.0 0.00 0.00 0.00 62 1014.7
20260903064217 11 251 0.0 0.0 0.00 0.00 0.00 62 1014.7
20260903064012 11 251 0.0 0.0 0.00 0.00 0.00 61 1014.7
20260903063802 11 251 0.0 0.0 0.00 0.00 0.00 62 1014.7
20260903063414 11 251 0.0 0.0 0.00 0.00 0.00 61 1014.7
20260903063211 11 251 0.0 0.0 0.00 0.00 0.00 61 1014.7
20260903063004 11 251 0.0 0.0 0.00 0.00 0.00 61 1014.7
20260903062757 11 251 0.0 0.0 0.00 0.00 0.00 61 1014.7
20260903062552 11 251 0.0 0.0 0.00 0.00 0.00 61 1014.7
20260903062339 11 251 0.0 0.0 0.00 0.00 0.00 61 1014.7
20260903062127 11 251 0.0 0.0 0.00 0.00 0.00 60 1014.6
20260903061921 11 251 0.0 0.0 0.00 0.00 0.00 60 1014.6
20260903061711 12 251 0.0 0.0 0.00 0.00 0.00 60 1014.7
20260903061508 12 251 0.0 0.0 0.00 0.00 0.00 60 1014.7
20260903061115 12 251 0.0 0.0 0.00 0.00 0.00 60 1014.7
20260903060723 12 251 0.0 0.0 0.00 0.00 0.00 60 1014.7
20260903060510 12 251 0.0 0.0 0.00 0.00 0.00 60 1014.8
20260903060113 12 251 0.0 0.0 0.00 0.00 0.00 59 1014.9
20260903055908 12 251 0.0 0.0 0.00 0.00 0.00 59 1014.9
20260903055701 12 251 0.0 0.0 0.00 0.00 0.00 59 1014.9
20260903055453 12 251 0.0 0.0 0.00 0.00 0.00 59 1014.9
20260903055245 12 251 0.0 0.0 0.00 0.00 0.00 59 1014.9
20260903055043 12 251 0.0 0.0 0.00 0.00 0.00 59 1014.9
20260903054837 12 251 0.0 0.0 0.00 0.00 0.00 59 1014.9
20260903054625 12 251 0.0 0.0 0.00 0.00 0.00 59 1014.8
20260903054419 12 251 0.0 0.0 0.00 0.00 0.00 59 1014.8
20260903054209 12 251 0.0 0.0 0.00 0.00 0.00 59 1014.9
20260903054000 12 251 0.0 0.0 0.00 0.00 0.00 58 1014.9
20260903053756 12 251 0.0 0.0 0.00 0.00 0.00 58 1015.0
20260903053550 12 251 0.0 0.0 0.00 0.00 0.00 58 1015.0
20260903053156 12 251 0.0 0.0 0.00 0.00 0.00 58 1015.0
20260903052953 12 251 0.0 0.0 0.00 0.00 0.00 58 1015.0
20260903052419 12 251 0.0 0.0 0.00 0.00 0.00 58 1015.2
20260903052210 12 251 0.0 0.0 0.00 0.00 0.00 58 1015.1
20260903051958 13 251 0.0 0.0 0.00 0.00 0.00 58 1015.2
20260903051748 13 251 0.0 0.0 0.00 0.00 0.00 57 1015.1
20260903051538 13 251 0.0 0.0 0.00 0.00 0.00 57 1015.1
20260903051331 13 251 0.0 0.0 0.00 0.00 0.00 57 1015.1
20260903051122 13 251 0.0 0.0 0.00 0.00 0.00 57 1015.1
20260903050912 13 251 0.0 0.0 0.00 0.00 0.00 57 1015.1
20260903050708 13 251 0.0 0.0 0.00 0.00 0.00 57 1015.1
20260903050503 13 251 0.0 0.0 0.00 0.00 0.00 56 1015.1
20260903050302 13 251 0.0 0.0 0.00 0.00 0.00 56 1015.2
20260903045906 13 251 0.0 0.0 0.00 0.00 0.00 56 1015.2
20260903045701 13 251 0.0 0.0 0.00 0.00 0.00 56 1015.2
20260903045312 13 251 0.0 0.0 0.00 0.00 0.00 56 1015.3
20260903045103 13 251 0.0 0.0 0.00 0.00 0.00 56 1015.2
20260903044850 13 251 0.0 0.0 0.00 0.00 0.00 55 1015.3
20260903044644 13 251 0.0 0.0 0.00 0.00 0.00 55 1015.3
20260903044252 13 251 0.0 0.0 0.00 0.00 0.00 55 1015.2
20260903044039 13 251 0.0 0.0 0.00 0.00 0.00 55 1015.2
20260903043651 13 251 0.0 0.0 0.00 0.00 0.00 55 1015.2
20260903043440 13 251 0.0 0.0 0.00 0.00 0.00 55 1015.2
20260903043231 14 251 0.0 0.0 0.00 0.00 0.00 54 1015.1
20260903042841 14 251 0.0 0.0 0.00 0.00 0.00 54 1015.2
20260903042635 14 251 0.0 0.0 0.00 0.00 0.00 54 1015.1
20260903042055 14 251 0.0 0.0 0.00 0.00 0.00 53 1015.1
20260903041850 14 251 0.0 0.0 0.00 0.00 0.00 53 1015.1
20260903041646 14 251 0.0 0.0 0.00 0.00 0.00 53 1015.1
20260903041439 14 251 0.0 0.0 0.00 0.00 0.00 53 1015.1
20260903041230 14 251 0.0 0.0 0.00 0.00 0.00 53 1015.1
20260903041021 15 251 0.0 0.0 0.00 0.00 0.00 52 1015.0
20260903040813 15 251 0.0 0.0 0.00 0.00 0.00 52 1015.0
20260903040600 15 251 0.0 0.0 0.00 0.00 0.00 52 1015.0
20260903040356 15 251 0.0 0.0 0.00 0.00 0.00 52 1015.0
20260903040150 15 251 0.0 0.0 0.00 0.00 0.00 52 1015.0
20260903035946 15 251 0.0 0.0 0.00 0.00 0.00 52 1015.0
20260903035550 15 251 0.0 0.0 0.00 0.00 0.00 51 1015.0
20260903035344 15 251 0.0 0.0 0.00 0.00 0.00 51 1015.0
20260903035142 15 251 0.0 0.0 0.00 0.00 0.00 51 1014.9
20260903034939 15 251 0.0 0.0 0.00 0.00 0.00 51 1014.9
20260903034727 15 251 0.0 0.0 0.00 0.00 0.00 50 1014.9
20260903034522 15 251 0.0 0.0 0.00 0.00 0.00 50 1014.9
20260903034311 15 251 0.0 0.0 0.00 0.00 0.00 50 1014.8
20260903034059 16 251 0.0 0.0 0.00 0.00 0.00 50 1014.8
20260903033853 16 251 0.0 0.0 0.00 0.00 0.00 50 1014.7
20260903033642 16 251 0.0 0.0 0.00 0.00 0.00 49 1014.8
20260903033438 16 251 0.0 0.0 0.00 0.00 0.00 49 1014.7
20260903033226 16 251 0.0 0.0 0.00 0.00 0.00 49 1014.7
20260903033022 16 251 0.0 0.0 0.00 0.00 0.00 49 1014.7
20260903032820 16 251 0.0 0.0 0.00 0.00 0.00 48 1014.6
20260903032618 16 251 0.0 0.0 0.00 0.00 0.00 48 1014.6
20260903032409 16 251 0.0 0.0 0.00 0.00 0.00 48 1014.6
20260903032201 16 251 0.0 0.0 0.00 0.00 0.00 48 1014.6
20260903031955 17 251 0.0 0.0 0.00 0.00 0.00 48 1014.5
20260903031745 17 251 0.0 0.0 0.00 0.00 0.00 47 1014.5
20260903031348 17 251 0.0 0.0 0.00 0.00 0.00 47 1014.5
20260903031142 17 251 0.0 0.0 0.00 0.00 0.00 47 1014.5
20260903030934 17 251 0.0 0.0 0.00 0.00 0.00 47 1014.5
20260903030726 17 251 0.0 0.0 0.00 0.00 0.00 47 1014.5
20260903030524 17 251 0.0 0.0 0.00 0.00 0.00 46 1014.5
20260903030133 18 251 0.0 0.0 0.00 0.00 0.00 46 1014.5
20260903025922 18 251 0.0 0.0 0.00 0.00 0.00 46 1014.5
20260903025712 18 251 0.0 0.0 0.00 0.00 0.00 46 1014.4
20260903025501 18 251 0.0 0.0 0.00 0.00 0.00 45 1014.4
20260903025254 18 251 0.0 0.0 0.00 0.00 0.00 45 1014.4
20260903025047 18 251 0.0 0.0 0.00 0.00 0.00 45 1014.3
20260903024840 18 251 0.0 0.0 0.00 0.00 0.00 45 1014.3
20260903024630 18 251 0.0 0.0 0.00 0.00 0.00 44 1014.3
20260903024426 18 251 0.0 0.0 0.00 0.00 0.00 45 1014.3
20260903024220 18 251 0.0 0.0 0.00 0.00 0.00 44 1014.3
20260903024009 19 251 0.0 0.0 0.00 0.00 0.00 44 1014.3
20260903023806 19 251 0.0 0.0 0.00 0.00 0.00 44 1014.3
20260903023556 19 251 0.0 0.0 0.00 0.00 0.00 44 1014.3
20260903023208 19 251 0.0 0.0 0.00 0.00 0.00 44 1014.3
20260903023003 19 251 0.0 0.0 0.00 0.00 0.00 44 1014.3
20260903022609 20 251 0.0 0.0 0.00 0.00 0.00 44 1014.4
20260903022402 20 251 0.0 0.0 0.00 0.00 0.00 44 1014.4
20260903022151 20 251 0.0 0.0 0.00 0.00 0.00 44 1014.4
20260903021943 20 251 0.0 0.0 0.00 0.00 0.00 44 1014.4
20260903021738 20 251 0.0 0.0 0.00 0.00 0.00 44 1014.4
20260903021526 20 251 0.0 0.0 0.00 0.00 0.00 44 1014.4
20260903021324 20 251 0.0 0.0 0.00 0.00 0.00 43 1014.4
20260903021119 20 251 0.0 0.0 0.00 0.00 0.00 43 1014.3
20260903020915 20 251 0.0 0.0 0.00 0.00 0.00 43 1014.3
20260903020705 20 251 0.0 0.0 0.00 0.00 0.00 43 1014.3
20260903020457 20 251 0.0 0.0 0.00 0.00 0.00 43 1014.3
20260903020250 20 251 0.0 0.0 0.00 0.00 0.00 43 1014.3
20260903015853 20 251 0.0 0.0 0.00 0.00 0.00 42 1014.3
20260903015645 20 251 0.0 0.0 0.00 0.00 0.00 43 1014.3
20260903015436 20 251 0.0 0.0 0.00 0.00 0.00 42 1014.3
20260903015227 20 251 0.0 6.4 0.00 0.00 0.00 41 1014.3
20260903015021 20 251 0.0 6.4 0.00 0.00 0.00 42 1014.3
20260903014626 20 225 0.0 3.2 0.00 0.00 0.00 41 1014.2
20260903014416 21 225 0.0 3.2 0.00 0.00 0.00 41 1014.3
20260903014026 21 225 0.0 1.6 0.00 0.00 0.00 42 1014.3
20260903013818 21 225 0.0 0.0 0.00 0.00 0.00 41 1014.3
20260903013606 21 225 0.0 0.0 0.00 0.00 0.00 41 1014.3
20260903013355 21 225 0.0 1.6 0.00 0.00 0.00 41 1014.2
20260903013144 21 225 0.0 1.6 0.00 0.00 0.00 41 1014.2
20260903012932 21 225 0.0 0.0 0.00 0.00 0.00 41 1014.2
20260903012723 21 225 0.0 0.0 0.00 0.00 0.00 40 1014.2
20260903012511 21 225 0.0 0.0 0.00 0.00 0.00 40 1014.2
20260903012259 21 225 0.0 6.4 0.00 0.00 0.00 40 1014.2
20260903012056 21 225 0.0 6.4 0.00 0.00 0.00 40 1014.2
20260903011843 21 225 0.0 6.4 0.00 0.00 0.00 40 1014.2
20260903011638 21 228 0.0 6.4 0.00 0.00 0.00 39 1014.2
20260903011431 21 228 0.0 6.4 0.00 0.00 0.00 39 1014.2